To NAV CANADA Home Page Login to a new session Search on AWWS site Feedback and Comments Disclaimer Vers la page française équivalente Tips FAQ What's new on the site To the Forecasts and Observations / NOTAM section To "File a Flight Plan" website Publications and other links Update of the User's profile FIC Telephone Numbers My Weather Data Folder Route Weather Data Regional Weather Data Local Weather Data To the Forecasts and Observations / NOTAM section
Request Generated 10/17/2017 at 01:57:20 UTC . Weather information available at that time is displayed.

METAR/TAF

KANGIRSUK/QC    

LWIS CYAS 170100Z AUTO 29012G17KT M01/M03 A2960=
LWIS CYAS 170000Z AUTO 29010KT M01/M03 A2960=
LWIS CYAS 162300Z AUTO 29012G18KT M00/M03 A2959=

*** REMARK        : Forecast period has ended; this was the last TAF issued
*** REMARQUE : La période de prévision est échue; ceci était le dernier TAF qui a été émis
TAF AMD CYAS 161741Z 1617/1621 29015G25KT P6SM FEW020 BKN040 BKN100
RMK NXT FCST WILL BE ISSUED AT 171345Z=
Your time UTC time
Weather data provided by Environment Canada and NAV CANADA